Orbital Elements at Epoch 2459000.5 (2020-May-31.0) TDB
Reference: JPL 7 (heliocentric ecliptic J2000)
Element | Value | Uncertainty (1-sigma) | Units |
e | .5298852821274435 | 0.00029214 | |
a | 1.69106509703768 | 0.00090227 | au |
q | .7949945909979964 | 6.987e-05 | au |
i | 13.99143489557084 | 0.0061846 | deg |
node | 72.3161448974711 | 0.00094078 | deg |
peri | 249.986927030419 | 0.0015283 | deg |
M | 335.9308623386839 | 0.023218 | deg |
tp | 2459054.202801976631 (2020-Jul-23.70280198) | 0.008824 | TDB |
period | 803.2281415158059 2.20 | 0.64285 0.00176 | d yr |
n | .4481914681433207 | 0.0003587 | deg/d |
Q | 2.587135603077364 | 0.0013804 | au |
|
| | Orbit Determination Parameters
Additional Information
|